This demonstration page uses our WeatherBlox Daily Observations layout. Learn more.

Left ArrowRight Arrow

Hourly Observations for October 8, 2022

Temp ( °F °C ) Dew Point ( °F °C ) Humidity (%) Winds ( mph kmh ) Pressure ( in mb ) Visibility ( mi km ) Precip ( " mm )
12:51 am 00:51 Cloudy 64 17.8 54 12.2 70 70 ESE 7 11 30.09 1019 10 16 0.00 0.00
1:51 am 01:51 Cloudy 64 17.8 54 12.2 70 70 SE 6 9 30.09 1019 10 16 0.00 0.00
2:51 am 02:51 Cloudy with Light Rain 62 16.7 57 13.9 84 84 SSE 5 7 30.09 1019 10 16 0.01 0.13
3:51 am 03:51 Cloudy 63 17.2 57 13.9 81 81 Calm 30.09 1019 10 16 0.01 0.13
4:51 am 04:51 Cloudy 62 16.7 57 13.9 84 84 S 5 7 30.10 1019 10 16 0.00 0.00
5:51 am 05:51 Mostly Cloudy 61 16.1 57 13.9 87 87 SE 3 6 30.12 1020 10 16 0.00 0.00
6:51 am 06:51 Cloudy 62 16.7 56 13.3 80 80 SE 6 9 30.14 1021 10 16 0.00 0.00
7:51 am 07:51 Mostly Cloudy 62 16.7 57 13.9 84 84 SSE 9 15 30.15 1021 10 16 0.00 0.00
8:51 am 08:51 Cloudy 64 17.8 56 13.3 75 75 SSE 10 17 30.16 1021 10 16 0.00 0.00
9:51 am 09:51 Cloudy 65 18.3 56 13.3 73 73 SSE 9 15 30.16 1021 10 16 0.00 0.00
10:51 am 10:51 Cloudy 69 20.6 55 12.8 61 61 SE 13 20 30.14 1021 10 16 0.00 0.00
11:51 am 11:51 Cloudy 70 21.1 55 12.8 59 59 E 12 19 30.11 1020 10 16 0.00 0.00
12:51 pm 12:51 Partly Cloudy 75 23.9 55 12.8 50 50 E 15 24 30.06 1018 10 16 0.00 0.00
1:51 pm 13:51 Sunny 75 23.9 55 12.8 50 50 ENE 16 26 30.02 1017 10 16 0.00 0.00
2:51 pm 14:51 Sunny 76 24.4 54 12.2 47 47 E 13 20 30.00 1016 10 16 0.00 0.00
3:51 pm 15:51 Sunny 76 24.4 54 12.2 47 47 E 15 24 29.99 1016 10 16 0.00 0.00
4:31 pm 16:31 Sunny with Nearby Thunderstorms 73 22.8 55 12.8 53 53 E 16 26 29.94 1014 10 16 0.00 0.00
4:51 pm 16:51 Sunny 73 22.8 54 12.2 51 51 E 12 19 29.99 1016 10 16 0.00 0.00
5:51 pm 17:51 Mostly Sunny 67 19.4 52 11.1 59 59 S 13 20 30.04 1017 10 16 0.00 0.00
6:51 pm 18:51 Mostly Clear 66 18.9 50 10 56 56 E 8 13 30.06 1018 10 16 0.00 0.00
7:51 pm 19:51 Clear 65 18.3 52 11.1 63 63 ESE 8 13 30.08 1019 10 16 0.00 0.00
8:51 pm 20:51 Mostly Cloudy 63 17.2 52 11.1 67 67 SSE 6 9 30.09 1019 10 16 0.00 0.00
9:51 pm 21:51 Clear 63 17.2 52 11.1 67 67 SSE 10 17 30.10 1019 10 16 0.00 0.00
10:51 pm 22:51 Cloudy 64 17.8 52 11.1 65 65 ESE 10 17 30.10 1019 10 16 0.00 0.00
11:51 pm 23:51 Clear 62 16.7 52 11.1 70 70 E 9 15 30.09 1019 10 16 0.00 0.00

Powered by AerisWeather